Daily Reports
[Select Refresh to Update]
Updated Automatically by Ambient Software's Virtual Weather Station  V14.01


Daily Archive Report

Parameter                   Max   Max Time        Min   Min Time    Average
Wind Direction              145    10:31am         40    10:11am         90
Wind Speed                 17.0    10:04am        0.0    12:06am        2.8
Wind Gust                  17.0    10:04am        0.0     2:00am        8.1
Humidity                     92     8:37am         80    11:19am         87
Out Temp                   43.6    11:50am       34.3     2:53am       38.0
Raw Barometer             30.04    12:00am      29.87    11:44am      29.98
Dew Point                  39.1     9:54am       30.6     2:53am       34.5


Today's  Data File

12/21/14
Time         Wind Dir   Wind Spd  Wind Gust   Humidity       Temp  Raw Barom  Dew Point Barom Rate Wind Spd H WindGust H Humidity H Temp Out H Humidity L Temp Out L  DailyRain   24HrRain
                            mph        mph          %         F         in         F      in/hr        mph        mph          %         F          %         F         in         in
12:00am           100        6.0       12.0         82       36.9      30.04       31.9     -0.015       12.0       12.0         82       36.9         82       36.9       0.00       0.00
12:05am            90        3.0        6.0         82       36.9      30.04       31.9     -0.014       12.0       12.0         82       36.9         82       36.9       0.00       0.00
12:10am            83        2.0       11.0         83       36.9      30.04       32.2     -0.013       12.0       12.0         83       36.9         82       36.9       0.00       0.00
12:15am            91        2.0       11.0         83       36.9      30.03       32.2     -0.017       12.0       12.0         83       36.9         82       36.9       0.00       0.00
12:20am            90        5.0       11.0         83       36.8      30.03       32.1     -0.015       12.0       12.0         83       36.9         82       36.8       0.00       0.00
12:25am            63        2.0       11.0         83       36.6      30.03       31.9     -0.014       12.0       12.0         83       36.9         82       36.6       0.00       0.00
12:30am            69        1.0       11.0         83       36.6      30.02       31.9     -0.021       12.0       12.0         83       36.9         82       36.6       0.00       0.00
12:35am            69        0.0       11.0         83       36.5      30.02       31.8     -0.019       12.0       12.0         83       36.9         82       36.5       0.00       0.00
12:40am            74        3.0       11.0         83       36.5      30.02       31.8     -0.018       12.0       12.0         83       36.9         82       36.5       0.00       0.00
12:45am            86        0.0       11.0         83       36.5      30.02       31.8     -0.023       12.0       12.0         83       36.9         82       36.5       0.00       0.00
12:50am            86        5.0       11.0         83       36.3      30.02       31.6     -0.021       12.0       12.0         83       36.9         82       36.3       0.00       0.00
12:55am            86        1.0       11.0         83       36.2      30.02       31.5     -0.020       12.0       12.0         83       36.9         82       36.2       0.00       0.00
1:00am             87        1.0       11.0         84       36.2      30.02       31.8     -0.015       12.0       12.0         84       36.9         82       36.2       0.00       0.00
1:05am             74        2.0        8.0         84       36.2      30.02       31.8     -0.014       12.0       12.0         84       36.9         82       36.0       0.00       0.00
1:10am             76        2.0        8.0         84       36.2      30.02       31.8     -0.013       12.0       12.0         84       36.9         82       36.0       0.00       0.00
1:15am             76        2.0        8.0         84       36.2      30.02       31.8     -0.014       12.0       12.0         84       36.9         82       36.0       0.00       0.00
1:20am             76        2.0        8.0         84       36.0      30.02       31.6     -0.013       12.0       12.0         84       36.9         82       36.0       0.00       0.00
1:25am             77        0.0        8.0         84       36.0      30.02       31.6     -0.012       12.0       12.0         84       36.9         82       36.0       0.00       0.00
1:30am             87        0.0        8.0         84       36.0      30.02       31.6     -0.013       12.0       12.0         84       36.9         82       36.0       0.00       0.00
1:35am             87        1.0        8.0         84       35.9      30.02       31.5     -0.012       12.0       12.0         84       36.9         82       35.9       0.00       0.00
1:40am             87        0.0        8.0         84       35.9      30.02       31.5     -0.011       12.0       12.0         84       36.9         82       35.9       0.00       0.00
1:45am             87        0.0        8.0         84       35.8      30.01       31.4     -0.011       12.0       12.0         84       36.9         82       35.8       0.00       0.00
1:50am             87        0.0        8.0         84       35.8      30.01       31.4     -0.010       12.0       12.0         84       36.9         82       35.8       0.00       0.00
1:55am             87        0.0        8.0         85       35.6      30.01       31.5     -0.009       12.0       12.0         85       36.9         82       35.6       0.00       0.00
2:00am             87        0.0        8.0         85       35.5      30.02       31.4     -0.007       12.0       12.0         85       36.9         82       35.5       0.00       0.00
2:05am             87        0.0        0.0         85       35.5      30.02       31.4     -0.007       12.0       12.0         85       36.9         82       35.5       0.00       0.00
2:10am             87        0.0        0.0         85       35.3      30.02       31.2     -0.006       12.0       12.0         85       36.9         82       35.3       0.00       0.00
2:15am             87        0.0        0.0         85       35.2      30.02       31.2     -0.003       12.0       12.0         85       36.9         82       35.2       0.00       0.00
2:20am             87        0.0        0.0         85       35.2      30.02       31.2     -0.003       12.0       12.0         85       36.9         82       35.2       0.00       0.00
2:25am             87        0.0        0.0         85       35.0      30.02       31.0     -0.002       12.0       12.0         85       36.9         82       35.0       0.00       0.00
2:30am             87        0.0        0.0         85       34.9      30.02       30.9     -0.001       12.0       12.0         85       36.9         82       34.9       0.00       0.00
2:35am             87        0.0        0.0         85       34.7      30.02       30.7     -0.001       12.0       12.0         85       36.9         82       34.7       0.00       0.00
2:40am             87        0.0        0.0         86       34.6      30.02       30.9     -0.001       12.0       12.0         86       36.9         82       34.6       0.00       0.00
2:45am             87        0.0        0.0         86       34.4      30.02       30.7      0.001       12.0       12.0         86       36.9         82       34.4       0.00       0.00
2:50am             87        0.0        0.0         86       34.4      30.02       30.7      0.001       12.0       12.0         86       36.9         82       34.4       0.00       0.00
2:55am             87        0.0        0.0         86       34.3      30.02       30.6      0.001       12.0       12.0         86       36.9         82       34.3       0.00       0.00
3:00am             87        1.0        3.0         87       34.6      30.02       31.1      0.001       12.0       12.0         87       36.9         82       34.3       0.00       0.00
3:05am             87        0.0        2.0         87       34.9      30.02       31.4      0.001       12.0       12.0         87       36.9         82       34.3       0.00       0.00
3:10am             87        1.0        2.0         87       35.0      30.02       31.5      0.001       12.0       12.0         87       36.9         82       34.3       0.00       0.00
3:15am             87        0.0        2.0         87       35.2      30.02       31.7     -0.000       12.0       12.0         87       36.9         82       34.3       0.00       0.00
3:20am             87        0.0        2.0         87       35.3      30.02       31.8     -0.000       12.0       12.0         87       36.9         82       34.3       0.00       0.00
3:25am             87        0.0        2.0         87       35.3      30.02       31.8     -0.000       12.0       12.0         87       36.9         82       34.3       0.00       0.00
3:30am             87        0.0        2.0         87       35.3      30.02       31.8     -0.001       12.0       12.0         87       36.9         82       34.3       0.00       0.00
3:35am             87        0.0        2.0         87       35.5      30.02       32.0     -0.001       12.0       12.0         87       36.9         82       34.3       0.00       0.00
3:40am             87        0.0        2.0         87       35.5      30.02       32.0     -0.001       12.0       12.0         87       36.9         82       34.3       0.00       0.00
3:45am             87        1.0        3.0         87       35.6      30.02       32.1     -0.004       12.0       12.0         87       36.9         82       34.3       0.00       0.00
3:50am             87        0.0        3.0         87       35.8      30.02       32.3     -0.004       12.0       12.0         87       36.9         82       34.3       0.00       0.00
3:55am             87        2.0        3.0         87       35.8      30.02       32.3     -0.003       12.0       12.0         87       36.9         82       34.3       0.00       0.00
4:00am             87        3.0        3.0         87       35.9      30.01       32.4     -0.012       12.0       12.0         87       36.9         82       34.3       0.00       0.00
4:05am             87        1.0        5.0         87       36.0      30.01       32.5     -0.011       12.0       12.0         87       36.9         82       34.3       0.00       0.00
4:10am             87        0.0        5.0         87       36.0      30.01       32.5     -0.010       12.0       12.0         87       36.9         82       34.3       0.00       0.00
4:15am             88        1.0        5.0         87       36.2      30.00       32.7     -0.012       12.0       12.0         87       36.9         82       34.3       0.00       0.00
4:20am             88        2.0        5.0         87       36.5      30.00       33.0     -0.011       12.0       12.0         87       36.9         82       34.3       0.00       0.00
4:25am             88        2.0        5.0         87       36.6      30.00       33.1     -0.010       12.0       12.0         87       36.9         82       34.3       0.00       0.00
4:30am             90        3.0        5.0         87       36.8      30.00       33.3     -0.014       12.0       12.0         87       36.9         82       34.3       0.00       0.00
4:35am             88        1.0        5.0         87       37.0      30.00       33.5     -0.013       12.0       12.0         87       37.0         82       34.3       0.00       0.00
4:40am             88        0.0        5.0         87       37.2      30.00       33.7     -0.012       12.0       12.0         87       37.2         82       34.3       0.00       0.00
4:45am             88        2.0        5.0         87       37.3      29.99       33.8     -0.021       12.0       12.0         87       37.3         82       34.3       0.00       0.00
4:50am            100        1.0        6.0         86       37.5      29.99       33.7     -0.019       12.0       12.0         87       37.5         82       34.3       0.00       0.00
4:55am             98        0.0        6.0         86       37.6      29.99       33.8     -0.018       12.0       12.0         87       37.6         82       34.3       0.00       0.00
5:00am             98        0.0        6.0         86       37.6      29.99       33.8     -0.019       12.0       12.0         87       37.6         82       34.3       0.00       0.00
5:05am             98        2.0        2.0         87       37.6      29.99       34.1     -0.018       12.0       12.0         87       37.6         82       34.3       0.00       0.00
5:10am             98        1.0        3.0         87       37.8      29.99       34.3     -0.016       12.0       12.0         87       37.8         82       34.3       0.00       0.00
5:15am             98        1.0        5.0         87       37.9      29.98       34.4     -0.021       12.0       12.0         87       37.9         82       34.3       0.00       0.00
5:20am             96        1.0        6.0         87       37.9      29.98       34.4     -0.019       12.0       12.0         87       37.9         82       34.3       0.00       0.00
5:25am             94        2.0        6.0         87       37.9      29.98       34.4     -0.018       12.0       12.0         87       37.9         82       34.3       0.00       0.00
5:30am             94        0.0        6.0         87       37.9      29.98       34.4     -0.019       12.0       12.0         87       37.9         82       34.3       0.00       0.00
5:35am             96        0.0        6.0         88       37.9      29.98       34.7     -0.018       12.0       12.0         88       37.9         82       34.3       0.00       0.00
5:40am             94        3.0        6.0         88       38.0      29.98       34.8     -0.016       12.0       12.0         88       38.0         82       34.3       0.00       0.00
5:45am             94        1.0        6.0         88       38.0      29.98       34.8     -0.013       12.0       12.0         88       38.0         82       34.3       0.00       0.00
5:50am             96        0.0        6.0         88       38.0      29.98       34.8     -0.012       12.0       12.0         88       38.0         82       34.3       0.00       0.00
5:55am             94        0.0        6.0         88       38.0      29.98       34.8     -0.011       12.0       12.0         88       38.0         82       34.3       0.00       0.00
6:00am             94        2.0        6.0         89       38.0      29.98       35.1     -0.008       12.0       12.0         89       38.0         82       34.3       0.00       0.00
6:05am             94        2.0        3.0         89       38.0      29.98       35.1     -0.008       12.0       12.0         89       38.0         82       34.3       0.00       0.00
6:10am             96        2.0        6.0         89       37.9      29.98       35.0     -0.007       12.0       12.0         89       38.0         82       34.3       0.00       0.00
6:15am             94        1.0        6.0         89       37.9      29.97       35.0     -0.013       12.0       12.0         89       38.0         82       34.3       0.00       0.00
6:20am             94        0.0        6.0         89       37.9      29.97       35.0     -0.012       12.0       12.0         89       38.0         82       34.3       0.00       0.00
6:25am             96        1.0        6.0         89       37.9      29.97       35.0     -0.011       12.0       12.0         89       38.0         82       34.3       0.00       0.00
6:30am             96        0.0        6.0         89       37.9      29.98       35.0     -0.009       12.0       12.0         89       38.0         82       34.3       0.00       0.00
6:35am             94        0.0        6.0         89       37.9      29.98       35.0     -0.009       12.0       12.0         89       38.0         82       34.3       0.00       0.00
6:40am             94        1.0        6.0         89       37.9      29.98       35.0     -0.008       12.0       12.0         89       38.0         82       34.3       0.00       0.00
6:45am             96        0.0        6.0         90       37.9      29.97       35.2     -0.010       12.0       12.0         90       38.0         82       34.3       0.00       0.00
6:50am             96        0.0        6.0         90       37.9      29.97       35.2     -0.009       12.0       12.0         90       38.0         82       34.3       0.00       0.00
6:55am             94        0.0        6.0         90       37.9      29.97       35.2     -0.009       12.0       12.0         90       38.0         82       34.3       0.00       0.00
7:00am             94        1.0        6.0         90       37.9      29.97       35.2     -0.010       12.0       12.0         90       38.0         82       34.3       0.00       0.00
7:05am             94        0.0        2.0         90       38.0      29.97       35.3     -0.009       12.0       12.0         90       38.0         82       34.3       0.00       0.00
7:10am             94        2.0        4.0         90       38.0      29.97       35.3     -0.008       12.0       12.0         90       38.0         82       34.3       0.00       0.00
7:15am             96        2.0        4.0         90       38.0      29.97       35.3     -0.010       12.0       12.0         90       38.0         82       34.3       0.00       0.00
7:20am             94        2.0        4.0         90       38.0      29.97       35.3     -0.009       12.0       12.0         90       38.0         82       34.3       0.00       0.00
7:25am             94        2.0        4.0         90       38.2      29.97       35.5     -0.008       12.0       12.0         90       38.2         82       34.3       0.00       0.00
7:30am             94        0.0        4.0         90       38.2      29.96       35.5     -0.015       12.0       12.0         90       38.2         82       34.3       0.00       0.00
7:35am             94        2.0        4.0         91       38.2      29.96       35.8     -0.014       12.0       12.0         91       38.2         82       34.3       0.00       0.00
7:40am             94        0.0        5.0         91       38.3      29.96       35.9     -0.013       12.0       12.0         91       38.3         82       34.3       0.00       0.00
7:45am             94        0.0        5.0         91       38.3      29.96       35.9     -0.014       12.0       12.0         91       38.3         82       34.3       0.00       0.00
7:50am             94        0.0        5.0         91       38.5      29.96       36.1     -0.013       12.0       12.0         91       38.5         82       34.3       0.00       0.00
7:55am             94        1.0        5.0         91       38.5      29.96       36.1     -0.012       12.0       12.0         91       38.5         82       34.3       0.00       0.00
8:00am             94        1.0        5.0         91       38.6      29.95       36.2     -0.016       12.0       12.0         91       38.6         82       34.3       0.00       0.00
8:05am             94        4.0        4.0         91       38.8      29.95       36.4     -0.015       12.0       12.0         91       38.8         82       34.3       0.00       0.00
8:10am             94        4.0        5.0         91       38.8      29.95       36.4     -0.013       12.0       12.0         91       38.8         82       34.3       0.00       0.00
8:15am             86        4.0        6.0         91       38.9      29.95       36.5     -0.018       12.0       12.0         91       38.9         82       34.3       0.00       0.00
8:20am             87        2.0        6.0         91       39.1      29.95       36.7     -0.017       12.0       12.0         91       39.1         82       34.3       0.00       0.00
8:25am             87        2.0        6.0         91       39.2      29.95       36.8     -0.015       12.0       12.0         91       39.2         82       34.3       0.00       0.00
8:30am             88        6.0        7.0         91       39.3      29.95       36.9     -0.009       12.0       12.0         91       39.3         82       34.3       0.00       0.00
8:35am             88        1.0        7.0         91       39.5      29.95       37.1     -0.009       12.0       12.0         91       39.5         82       34.3       0.00       0.00
8:40am             84        2.0        7.0         92       39.6      29.95       37.5     -0.008       12.0       12.0         92       39.6         82       34.3       0.00       0.00
8:45am             84        3.0        7.0         92       39.8      29.94       37.7     -0.017       12.0       12.0         92       39.8         82       34.3       0.00       0.00
8:50am             84        2.0        7.0         92       39.9      29.94       37.8     -0.016       12.0       12.0         92       39.9         82       34.3       0.00       0.00
8:55am             84        3.0        7.0         92       40.1      29.94       38.0     -0.014       12.0       12.0         92       40.1         82       34.3       0.00       0.00
9:00am             86        2.0        7.0         92       40.2      29.94       38.1     -0.018       12.0       12.0         92       40.2         82       34.3       0.00       0.00
9:05am             80        1.0        8.0         92       40.2      29.94       38.1     -0.017       12.0       12.0         92       40.2         82       34.3       0.00       0.00
9:10am             79        2.0        8.0         92       40.3      29.94       38.2     -0.015       12.0       12.0         92       40.3         82       34.3       0.00       0.00
9:15am             64        3.0        8.0         92       40.5      29.93       38.4     -0.018       12.0       12.0         92       40.5         82       34.3       0.00       0.00
9:20am             64        1.0        8.0         92       40.5      29.93       38.4     -0.017       12.0       12.0         92       40.5         82       34.3       0.00       0.00
9:25am             86        0.0        9.0         92       40.6      29.93       38.5     -0.015       12.0       12.0         92       40.6         82       34.3       0.00       0.00
9:30am            121        6.0        9.0         92       40.9      29.93       38.8     -0.020       12.0       12.0         92       40.9         82       34.3       0.00       0.00
9:35am            108        3.0       10.0         92       41.1      29.93       39.0     -0.018       12.0       12.0         92       41.1         82       34.3       0.00       0.00
9:40am             80        6.0       10.0         91       41.2      29.93       38.8     -0.017       12.0       12.0         92       41.2         82       34.3       0.00       0.00
9:45am             60        3.0       11.0         91       41.5      29.93       39.1     -0.017       12.0       12.0         92       41.5         82       34.3       0.00       0.00
9:50am             76        3.0       13.0         90       41.6      29.93       38.9     -0.015       13.0       13.0         92       41.6         82       34.3       0.00       0.00
9:55am             93        7.0       13.0         90       41.8      29.93       39.1     -0.014       13.0       13.0         92       41.8         82       34.3       0.00       0.00
10:00am            56       11.0       13.0         89       41.8      29.92       38.8     -0.019       13.0       13.0         92       41.8         82       34.3       0.00       0.00
10:05am            86        8.0       17.0         88       41.9      29.92       38.6     -0.017       17.0       17.0         92       41.9         82       34.3       0.00       0.00
10:10am            63       10.0       17.0         87       41.9      29.92       38.3     -0.016       17.0       17.0         92       41.9         82       34.3       0.00       0.00
10:15am            81        5.0       17.0         86       42.1      29.92       38.2     -0.013       17.0       17.0         92       42.1         82       34.3       0.00       0.00
10:20am           122       11.0       17.0         85       42.1      29.92       37.9     -0.012       17.0       17.0         92       42.1         82       34.3       0.00       0.00
10:25am            83        5.0       17.0         84       42.2      29.92       37.7     -0.011       17.0       17.0         92       42.2         82       34.3       0.00       0.00
10:30am            86        6.0       17.0         83       42.2      29.92       37.4     -0.012       17.0       17.0         92       42.2         82       34.3       0.00       0.00
10:35am            98        4.0       17.0         82       42.3      29.92       37.2     -0.011       17.0       17.0         92       42.3         82       34.3       0.00       0.00
10:40am            55        7.0       17.0         82       42.3      29.92       37.2     -0.010       17.0       17.0         92       42.3         82       34.3       0.00       0.00
10:45am            76        3.0       17.0         82       42.5      29.91       37.4     -0.022       17.0       17.0         92       42.5         82       34.3       0.00       0.00
10:50am            74        3.0       17.0         82       42.6      29.91       37.5     -0.020       17.0       17.0         92       42.6         82       34.3       0.00       0.00
10:55am           111        2.0       17.0         82       42.9      29.91       37.8     -0.019       17.0       17.0         92       42.9         82       34.3       0.00       0.00
11:00am           124        5.0       17.0         82       42.9      29.90       37.8     -0.025       17.0       17.0         92       42.9         82       34.3       0.00       0.00
11:05am            97        3.0        8.0         81       43.1      29.90       37.7     -0.023       17.0       17.0         92       43.1         81       34.3       0.00       0.00
11:10am            94        4.0        8.0         82       43.1      29.90       38.0     -0.021       17.0       17.0         92       43.1         81       34.3       0.00       0.00
11:15am           114        4.0        8.0         81       43.1      29.89       37.7     -0.029       17.0       17.0         92       43.1         81       34.3       0.00       0.00
11:20am            76        4.0        9.0         80       43.2      29.89       37.5     -0.027       17.0       17.0         92       43.2         80       34.3       0.00       0.00
11:25am           112        3.0       11.0         80       43.2      29.89       37.5     -0.025       17.0       17.0         92       43.2         80       34.3       0.00       0.00
11:30am            84        8.0       11.0         80       43.3      29.88       37.6     -0.033       17.0       17.0         92       43.3         80       34.3       0.00       0.00
11:35am           103        6.0       11.0         80       43.3      29.88       37.6     -0.030       17.0       17.0         92       43.3         80       34.3       0.00       0.00
11:40am            98        6.0       11.0         80       43.5      29.88       37.8     -0.028       17.0       17.0         92       43.5         80       34.3       0.00       0.00
11:45am            69        4.0       11.0         81       43.5      29.87       38.1     -0.037       17.0       17.0         92       43.5         80       34.3       0.00       0.00
11:50am           103        2.0       11.0         81       43.5      29.87       38.1     -0.034       17.0       17.0         92       43.5         80       34.3       0.00       0.00
11:55am            69        3.0       11.0         80       43.6      29.87       37.8     -0.032       17.0       17.0         92       43.6         80       34.3       0.00       0.00


Yesterday's Data File

12/20/14
Time         Wind Dir   Wind Spd  Wind Gust   Humidity       Temp  Raw Barom  Dew Point Barom Rate Wind Spd H WindGust H Humidity H Temp Out H Humidity L Temp Out L  DailyRain   24HrRain
                            mph        mph          %         F         in         F      in/hr        mph        mph          %         F          %         F         in         in
12:00am            56        0.0        0.0         92       34.0      30.13       31.9     -0.002        0.0        0.0         92       34.0         92       34.0       0.00       0.00
12:05am            55        0.0        0.0         92       34.0      30.13       31.9     -0.002        0.0        0.0         92       34.0         92       34.0       0.00       0.00
12:10am            55        0.0        0.0         92       34.1      30.13       32.0     -0.002        0.0        0.0         92       34.1         92       34.0       0.00       0.00
12:15am            55        0.0        0.0         92       34.1      30.13       32.0     -0.000        0.0        0.0         92       34.1         92       34.0       0.00       0.00
12:20am            55        0.0        0.0         92       34.1      30.13       32.0     -0.000        0.0        0.0         92       34.1         92       34.0       0.00       0.00
12:25am            55        0.0        0.0         92       34.3      30.13       32.2     -0.000        0.0        0.0         92       34.3         92       34.0       0.00       0.00
12:30am            55        0.0        0.0         92       34.3      30.13       32.2     -0.007        0.0        0.0         92       34.3         92       34.0       0.00       0.00
12:35am            55        0.0        0.0         92       34.4      30.13       32.3     -0.007        0.0        0.0         92       34.4         92       34.0       0.00       0.00
12:40am            55        0.0        0.0         92       34.4      30.13       32.3     -0.006        0.0        0.0         92       34.4         92       34.0       0.00       0.00
12:45am            55        0.0        1.0         92       34.4      30.12       32.3     -0.008        1.0        1.0         92       34.4         92       34.0       0.00       0.00
12:50am            55        0.0        1.0         92       34.6      30.12       32.5     -0.007        1.0        1.0         92       34.6         92       34.0       0.00       0.00
12:55am            55        0.0        1.0         92       34.6      30.12       32.5     -0.006        1.0        1.0         92       34.6         92       34.0       0.00       0.00
1:00am             55        0.0        1.0         92       34.6      30.12       32.5     -0.009        1.0        1.0         92       34.6         92       34.0       0.00       0.00
1:05am             56        0.0        0.0         92       34.7      30.12       32.6     -0.008        1.0        1.0         92       34.7         92       34.0       0.00       0.00
1:10am             55        1.0        2.0         92       34.7      30.12       32.6     -0.008        2.0        2.0         92       34.7         92       34.0       0.00       0.00
1:15am             56        0.0        2.0         92       34.6      30.12       32.5     -0.011        2.0        2.0         92       34.7         92       34.0       0.00       0.00
1:20am             56        0.0        2.0         92       34.4      30.12       32.3     -0.010        2.0        2.0         92       34.7         92       34.0       0.00       0.00
1:25am             56        0.0        2.0         92       34.4      30.12       32.3     -0.009        2.0        2.0         92       34.7         92       34.0       0.00       0.00
1:30am             55        0.0        2.0         92       34.3      30.11       32.2     -0.013        2.0        2.0         92       34.7         92       34.0       0.00       0.00
1:35am             55        0.0        2.0         92       34.3      30.11       32.2     -0.012        2.0        2.0         92       34.7         92       34.0       0.00       0.00
1:40am             55        0.0        2.0         92       34.3      30.11       32.2     -0.011        2.0        2.0         92       34.7         92       34.0       0.00       0.00
1:45am             55        0.0        2.0         92       34.3      30.12       32.2     -0.008        2.0        2.0         92       34.7         92       34.0       0.00       0.00
1:50am             55        0.0        2.0         92       34.3      30.12       32.2     -0.008        2.0        2.0         92       34.7         92       34.0       0.00       0.00
1:55am             55        0.0        2.0         92       34.3      30.12       32.2     -0.007        2.0        2.0         92       34.7         92       34.0       0.00       0.00
2:00am             55        0.0        2.0         92       34.3      30.12       32.2     -0.006        2.0        2.0         92       34.7         92       34.0       0.00       0.00
2:05am             55        0.0        0.0         92       34.3      30.12       32.2     -0.005        2.0        2.0         92       34.7         92       34.0       0.00       0.00
2:10am             55        0.0        0.0         92       34.3      30.12       32.2     -0.005        2.0        2.0         92       34.7         92       34.0       0.00       0.00
2:15am             56        0.0        0.0         92       34.3      30.12       32.2     -0.001        2.0        2.0         92       34.7         92       34.0       0.00       0.00
2:20am             56        0.0        0.0         92       34.4      30.12       32.3     -0.001        2.0        2.0         92       34.7         92       34.0       0.00       0.00
2:25am             55        0.0        1.0         92       34.4      30.12       32.3     -0.001        2.0        2.0         92       34.7         92       34.0       0.00       0.00
2:30am             55        0.0        1.0         92       34.4      30.12       32.3     -0.003        2.0        2.0         92       34.7         92       34.0       0.00       0.00
2:35am             55        0.0        1.0         92       34.4      30.12       32.3     -0.003        2.0        2.0         92       34.7         92       34.0       0.00       0.00
2:40am             55        0.0        1.0         92       34.4      30.12       32.3     -0.003        2.0        2.0         92       34.7         92       34.0       0.00       0.00
2:45am             56        0.0        1.0         93       34.6      30.12       32.8      0.005        2.0        2.0         93       34.7         92       34.0       0.00       0.00
2:50am             55        0.0        1.0         93       34.6      30.12       32.8      0.005        2.0        2.0         93       34.7         92       34.0       0.00       0.00
2:55am             56        0.0        1.0         93       34.6      30.12       32.8      0.005        2.0        2.0         93       34.7         92       34.0       0.00       0.00
3:00am             55        0.0        1.0         93       34.6      30.12       32.8      0.002        2.0        2.0         93       34.7         92       34.0       0.00       0.00
3:05am             55        0.0        0.0         93       34.6      30.12       32.8      0.002        2.0        2.0         93       34.7         92       34.0       0.00       0.00
3:10am             55        0.0        0.0         93       34.6      30.12       32.8      0.002        2.0        2.0         93       34.7         92       34.0       0.00       0.00
3:15am             55        0.0        0.0         93       34.6      30.13       32.8      0.009        2.0        2.0         93       34.7         92       34.0       0.00       0.00
3:20am             56        0.0        0.0         92       34.4      30.13       32.3      0.008        2.0        2.0         93       34.7         92       34.0       0.00       0.00
3:25am             55        0.0        0.0         92       34.4      30.13       32.3      0.007        2.0        2.0         93       34.7         92       34.0       0.00       0.00
3:30am             55        0.0        0.0         92       34.3      30.12       32.2      0.002        2.0        2.0         93       34.7         92       34.0       0.00       0.00
3:35am             56        0.0        0.0         92       34.3      30.12       32.2      0.002        2.0        2.0         93       34.7         92       34.0       0.00       0.00
3:40am             56        0.0        0.0         92       34.3      30.12       32.2      0.002        2.0        2.0         93       34.7         92       34.0       0.00       0.00
3:45am             56        0.0        0.0         92       34.1      30.12       32.0      0.000        2.0        2.0         93       34.7         92       34.0       0.00       0.00
3:50am             55        0.0        0.0         92       34.1      30.12       32.0      0.000        2.0        2.0         93       34.7         92       34.0       0.00       0.00
3:55am             55        0.0        0.0         92       34.1      30.12       32.0      0.000        2.0        2.0         93       34.7         92       34.0       0.00       0.00
4:00am             55        0.0        0.0         92       34.1      30.12       32.0     -0.002        2.0        2.0         93       34.7         92       34.0       0.00       0.00
4:05am             55        0.0        0.0         92       34.0      30.12       31.9     -0.001        2.0        2.0         93       34.7         92       34.0       0.00       0.00
4:10am             56        0.0        0.0         92       34.0      30.12       31.9     -0.001        2.0        2.0         93       34.7         92       34.0       0.00       0.00
4:15am             55        0.0        0.0         92       34.0      30.12       31.9     -0.008        2.0        2.0         93       34.7         92       34.0       0.00       0.00
4:20am             55        0.0        0.0         92       34.0      30.12       31.9     -0.007        2.0        2.0         93       34.7         92       34.0       0.00       0.00
4:25am             56        0.0        0.0         92       34.0      30.12       31.9     -0.007        2.0        2.0         93       34.7         92       34.0       0.00       0.00
4:30am             55        0.0        0.0         92       34.0      30.12       31.9     -0.002        2.0        2.0         93       34.7         92       34.0       0.00       0.00
4:35am             55        0.0        0.0         92       34.0      30.12       31.9     -0.002        2.0        2.0         93       34.7         92       34.0       0.00       0.00
4:40am             56        0.0        0.0         92       34.0      30.12       31.9     -0.002        2.0        2.0         93       34.7         92       34.0       0.00       0.00
4:45am             55        0.0        0.0         93       34.0      30.12       32.2     -0.005        2.0        2.0         93       34.7         92       34.0       0.00       0.00
4:50am             55        0.0        0.0         92       34.0      30.12       31.9     -0.004        2.0        2.0         93       34.7         92       34.0       0.00       0.00
4:55am             55        0.0        1.0         92       34.0      30.12       31.9     -0.004        2.0        2.0         93       34.7         92       34.0       0.00       0.00
5:00am             55        0.0        1.0         93       34.0      30.12       32.2      0.000        2.0        2.0         93       34.7         92       34.0       0.00       0.00
5:05am             55        0.0        2.0         93       34.0      30.12       32.2      0.000        2.0        2.0         93       34.7         92       34.0       0.00       0.00
5:10am             55        0.0        2.0         93       34.0      30.12       32.2      0.000        2.0        2.0         93       34.7         92       34.0       0.00       0.00
5:15am             55        0.0        2.0         92       34.0      30.12       31.9     -0.003        2.0        2.0         93       34.7         92       34.0       0.00       0.00
5:20am             56        0.0        2.0         92       34.0      30.12       31.9     -0.003        2.0        2.0         93       34.7         92       34.0       0.00       0.00
5:25am             55        0.0        2.0         92       34.0      30.12       31.9     -0.002        2.0        2.0         93       34.7         92       34.0       0.00       0.00
5:30am             56        0.0        2.0         92       34.0      30.12       31.9     -0.001        2.0        2.0         93       34.7         92       34.0       0.00       0.00
5:35am             55        0.0        2.0         92       34.0      30.12       31.9     -0.001        2.0        2.0         93       34.7         92       34.0       0.00       0.00
5:40am             55        0.0        2.0         92       34.0      30.12       31.9     -0.001        2.0        2.0         93       34.7         92       34.0       0.00       0.00
5:45am             56        0.0        2.0         92       34.0      30.12       31.9     -0.001        2.0        2.0         93       34.7         92       34.0       0.00       0.00
5:50am             56        0.0        2.0         92       34.0      30.12       31.9     -0.001        2.0        2.0         93       34.7         92       34.0       0.00       0.00
5:55am             56        0.0        2.0         92       34.0      30.12       31.9     -0.001        2.0        2.0         93       34.7         92       34.0       0.00       0.00
6:00am             56        0.0        2.0         92       34.0      30.12       31.9      0.001        2.0        2.0         93       34.7         92       34.0       0.00       0.00
6:05am             55        0.0        0.0         92       34.0      30.12       31.9      0.001        2.0        2.0         93       34.7         92       34.0       0.00       0.00
6:10am             55        0.0        0.0         92       34.0      30.12       31.9      0.001        2.0        2.0         93       34.7         92       34.0       0.00       0.00
6:15am             56        0.0        1.0         92       34.0      30.12       31.9      0.002        2.0        2.0         93       34.7         92       34.0       0.00       0.00
6:20am             56        2.0        2.0         92       33.8      30.12       31.7      0.002        2.0        2.0         93       34.7         92       33.8       0.00       0.00
6:25am             56        0.0        2.0         92       33.8      30.12       31.7      0.002        2.0        2.0         93       34.7         92       33.8       0.00       0.00
6:30am             56        1.0        3.0         92       33.8      30.12       31.7      0.002        3.0        3.0         93       34.7         92       33.8       0.00       0.00
6:35am             56        1.0        3.0         92       33.8      30.12       31.7      0.001        3.0        3.0         93       34.7         92       33.8       0.00       0.00
6:40am             56        0.0        3.0         92       33.8      30.12       31.7      0.001        3.0        3.0         93       34.7         92       33.8       0.00       0.00
6:45am             56        0.0        3.0         92       33.8      30.12       31.7     -0.002        3.0        3.0         93       34.7         92       33.8       0.00       0.00
6:50am             56        0.0        3.0         92       33.8      30.12       31.7     -0.002        3.0        3.0         93       34.7         92       33.8       0.00       0.00
6:55am             56        2.0        3.0         92       33.8      30.12       31.7     -0.002        3.0        3.0         93       34.7         92       33.8       0.00       0.00
7:00am             97        2.0        6.0         92       33.7      30.12       31.6      0.002        6.0        6.0         93       34.7         92       33.7       0.00       0.00
7:05am            101        4.0        8.0         92       33.7      30.12       31.6      0.001        8.0        8.0         93       34.7         92       33.7       0.00       0.00
7:10am            114        2.0        8.0         92       33.7      30.12       31.6      0.001        8.0        8.0         93       34.7         92       33.7       0.00       0.00
7:15am            112        1.0        8.0         92       33.7      30.12       31.6     -0.004        8.0        8.0         93       34.7         92       33.7       0.00       0.00
7:20am            111        5.0        8.0         92       33.7      30.12       31.6     -0.003        8.0        8.0         93       34.7         92       33.7       0.00       0.00
7:25am            110        1.0        8.0         92       33.7      30.12       31.6     -0.003        8.0        8.0         93       34.7         92       33.7       0.00       0.00
7:30am            108        4.0        8.0         92       33.7      30.12       31.6      0.000        8.0        8.0         93       34.7         92       33.7       0.00       0.00
7:35am            104        3.0       10.0         91       33.7      30.12       31.4      0.000       10.0       10.0         93       34.7         91       33.7       0.00       0.00
7:40am            108        2.0       10.0         91       33.7      30.12       31.4      0.000       10.0       10.0         93       34.7         91       33.5       0.00       0.00
7:45am             96        7.0       10.0         91       33.7      30.12       31.4      0.000       10.0       10.0         93       34.7         91       33.5       0.00       0.00
7:50am             66        3.0       10.0         90       33.7      30.12       31.1      0.000       10.0       10.0         93       34.7         90       33.5       0.00       0.00
7:55am             74        2.0       10.0         90       33.8      30.12       31.2      0.000       10.0       10.0         93       34.7         90       33.5       0.00       0.00
8:00am             77        6.0       10.0         90       33.8      30.12       31.2      0.003       10.0       10.0         93       34.7         90       33.5       0.00       0.00
8:05am             67        4.0        8.0         89       33.8      30.12       30.9      0.003       10.0       10.0         93       34.7         89       33.5       0.00       0.00
8:10am            131        5.0       10.0         89       34.0      30.12       31.1      0.003       10.0       10.0         93       34.7         89       33.5       0.00       0.00
8:15am            104        2.0       10.0         89       34.0      30.12       31.1      0.001       10.0       10.0         93       34.7         89       33.5       0.00       0.00
8:20am             73        8.0       11.0         89       34.0      30.12       31.1      0.001       11.0       11.0         93       34.7         89       33.5       0.00       0.00
8:25am             83        2.0       12.0         88       34.0      30.12       30.8      0.001       12.0       12.0         93       34.7         88       33.5       0.00       0.00
8:30am             57        6.0       12.0         88       34.1      30.12       30.9     -0.002       12.0       12.0         93       34.7         88       33.5       0.00       0.00
8:35am             96        2.0       12.0         87       34.1      30.12       30.6     -0.002       12.0       12.0         93       34.7         87       33.5       0.00       0.00
8:40am             90        5.0       12.0         87       34.3      30.12       30.8     -0.002       12.0       12.0         93       34.7         87       33.5       0.00       0.00
8:45am             98        5.0       12.0         87       34.3      30.12       30.8     -0.000       12.0       12.0         93       34.7         87       33.5       0.00       0.00
8:50am             79        3.0       12.0         87       34.3      30.12       30.8     -0.000       12.0       12.0         93       34.7         87       33.5       0.00       0.00
8:55am             86        5.0       12.0         87       34.4      30.12       30.9     -0.000       12.0       12.0         93       34.7         87       33.5       0.00       0.00
9:00am             74        3.0       12.0         86       34.4      30.12       30.7     -0.002       12.0       12.0         93       34.7         86       33.5       0.00       0.00
9:05am            104        3.0       10.0         86       34.6      30.12       30.9     -0.002       12.0       12.0         93       34.7         86       33.5       0.00       0.00
9:10am             86        5.0       10.0         86       34.7      30.12       30.9     -0.002       12.0       12.0         93       34.7         86       33.5       0.00       0.00
9:15am             63        6.0       10.0         86       34.9      30.12       31.1      0.002       12.0       12.0         93       34.9         86       33.5       0.00       0.00
9:20am             62        7.0       10.0         86       35.0      30.12       31.2      0.002       12.0       12.0         93       35.0         86       33.5       0.00       0.00
9:25am             49        6.0       11.0         86       35.0      30.12       31.2      0.002       12.0       12.0         93       35.0         86       33.5       0.00       0.00
9:30am             70        1.0       11.0         85       35.2      30.12       31.2      0.004       12.0       12.0         93       35.2         85       33.5       0.00       0.00
9:35am             67        1.0       11.0         86       35.3      30.12       31.5      0.003       12.0       12.0         93       35.3         85       33.5       0.00       0.00
9:40am             77        5.0       11.0         86       35.5      30.12       31.7      0.003       12.0       12.0         93       35.5         85       33.5       0.00       0.00
9:45am            107        3.0       11.0         85       35.5      30.12       31.4      0.002       12.0       12.0         93       35.5         85       33.5       0.00       0.00
9:50am             57        2.0       11.0         85       35.6      30.12       31.5      0.002       12.0       12.0         93       35.6         85       33.5       0.00       0.00
9:55am             57        2.0       11.0         85       35.8      30.12       31.7      0.002       12.0       12.0         93       35.8         85       33.5       0.00       0.00
10:00am            93        3.0       11.0         85       35.8      30.12       31.7      0.000       12.0       12.0         93       35.8         85       33.5       0.00       0.00
10:05am            77        2.0        7.0         85       36.0      30.12       31.9      0.000       12.0       12.0         93       36.0         85       33.5       0.00       0.00
10:10am            88        5.0        7.0         85       36.2      30.12       32.1      0.000       12.0       12.0         93       36.2         84       33.5       0.00       0.00
10:15am            96        5.0        7.0         85       36.5      30.12       32.4     -0.001       12.0       12.0         93       36.5         84       33.5       0.00       0.00
10:20am            60        6.0        7.0         84       36.5      30.12       32.1     -0.001       12.0       12.0         93       36.5         84       33.5       0.00       0.00
10:25am            91        5.0        7.0         84       36.8      30.12       32.4     -0.001       12.0       12.0         93       36.8         84       33.5       0.00       0.00
10:30am           105        7.0        7.0         84       36.9      30.11       32.5     -0.006       12.0       12.0         93       36.9         84       33.5       0.00       0.00
10:35am            76       10.0       10.0         83       37.0      30.11       32.3     -0.006       12.0       12.0         93       37.0         83       33.5       0.00       0.00
10:40am            79        6.0       10.0         83       37.0      30.11       32.3     -0.005       12.0       12.0         93       37.0         83       33.5       0.00       0.00
10:45am            90        3.0       11.0         83       37.2      30.11       32.5     -0.010       12.0       12.0         93       37.2         83       33.5       0.00       0.00
10:50am            73        2.0       11.0         83       37.5      30.11       32.8     -0.009       12.0       12.0         93       37.5         83       33.5       0.00       0.00
10:55am           105        3.0       11.0         82       37.5      30.11       32.5     -0.008       12.0       12.0         93       37.5         82       33.5       0.00       0.00
11:00am            76        1.0       11.0         82       37.6      30.10       32.6     -0.013       12.0       12.0         93       37.6         82       33.5       0.00       0.00
11:05am            67        4.0        7.0         82       37.9      30.10       32.9     -0.012       12.0       12.0         93       37.9         82       33.5       0.00       0.00
11:10am           120        5.0       11.0         81       38.2      30.10       32.9     -0.011       12.0       12.0         93       38.2         81       33.5       0.00       0.00
11:15am            93        5.0       11.0         82       38.6      30.10       33.6     -0.017       12.0       12.0         93       38.6         81       33.5       0.00       0.00
11:20am            67        6.0       11.0         81       38.8      30.10       33.5     -0.015       12.0       12.0         93       38.8         80       33.5       0.00       0.00
11:25am            72        2.0       11.0         80       39.1      30.10       33.5     -0.014       12.0       12.0         93       39.1         80       33.5       0.00       0.00
11:30am            66        5.0       11.0         80       39.2      30.09       33.6     -0.022       12.0       12.0         93       39.2         80       33.5       0.00       0.00
11:35am            81        2.0       11.0         79       39.8      30.09       33.8     -0.020       12.0       12.0         93       39.8         79       33.5       0.00       0.00
11:40am            81        2.0       11.0         79       40.1      30.09       34.1     -0.019       12.0       12.0         93       40.1         79       33.5       0.00       0.00
11:45am            80        4.0       11.0         77       40.1      30.08       33.5     -0.024       12.0       12.0         93       40.2         77       33.5       0.00       0.00
11:50am           100        5.0       11.0         78       40.1      30.08       33.8     -0.022       12.0       12.0         93       40.2         77       33.5       0.00       0.00
11:55am            96        3.0       11.0         78       40.1      30.08       33.8     -0.020       12.0       12.0         93       40.2         77       33.5       0.00       0.00
12:00pm           107        3.0       11.0         78       40.5      30.07       34.2     -0.027       12.0       12.0         93       40.5         77       33.5       0.00       0.00
12:05pm            91        3.0        7.0         78       41.2      30.07       34.9     -0.025       12.0       12.0         93       41.2         77       33.5       0.00       0.00
12:10pm           141        5.0        8.0         77       41.6      30.07       34.9     -0.023       12.0       12.0         93       41.6         76       33.5       0.00       0.00
12:15pm            70        5.0       10.0         76       41.8      30.07       34.8     -0.027       12.0       12.0         93       41.8         76       33.5       0.00       0.00
12:20pm            73        6.0       10.0         76       41.5      30.07       34.5     -0.025       12.0       12.0         93       41.8         76       33.5       0.00       0.00
12:25pm            73        2.0       10.0         76       41.6      30.07       34.6     -0.023       12.0       12.0         93       41.8         76       33.5       0.00       0.00
12:30pm            70        2.0       10.0         76       41.6      30.06       34.6     -0.032       12.0       12.0         93       41.8         76       33.5       0.00       0.00
12:35pm            64        4.0       10.0         76       41.8      30.06       34.8     -0.030       12.0       12.0         93       41.8         76       33.5       0.00       0.00
12:40pm            84        2.0       10.0         76       41.9      30.06       34.9     -0.027       12.0       12.0         93       41.9         76       33.5       0.00       0.00
12:45pm            74        2.0       10.0         76       42.1      30.05       35.1     -0.027       12.0       12.0         93       42.1         76       33.5       0.00       0.00
12:50pm            63        5.0       10.0         76       42.2      30.05       35.2     -0.025       12.0       12.0         93       42.2         76       33.5       0.00       0.00
12:55pm            53        7.0       10.0         76       42.2      30.05       35.2     -0.023       12.0       12.0         93       42.2         76       33.5       0.00       0.00
1:00pm             53        3.0       10.0         77       42.2      30.05       35.5     -0.024       12.0       12.0         93       42.2         76       33.5       0.00       0.00
1:05pm             53        6.0        8.0         77       42.2      30.05       35.5     -0.022       12.0       12.0         93       42.2         76       33.5       0.00       0.00
1:10pm             49        5.0        8.0         77       42.2      30.05       35.5     -0.020       12.0       12.0         93       42.2         76       33.5       0.00       0.00
1:15pm             87        6.0       10.0         77       42.5      30.04       35.8     -0.026       12.0       12.0         93       42.5         76       33.5       0.00       0.00
1:20pm             57        6.0       11.0         76       42.6      30.04       35.6     -0.024       12.0       12.0         93       42.6         76       33.5       0.00       0.00
1:25pm             67        6.0       11.0         76       42.6      30.04       35.6     -0.022       12.0       12.0         93       42.6         75       33.5       0.00       0.00
1:30pm             84        7.0       11.0         75       42.6      30.04       35.2     -0.023       12.0       12.0         93       42.8         75       33.5       0.00       0.00
1:35pm             74        3.0       11.0         76       42.6      30.04       35.6     -0.021       12.0       12.0         93       42.8         75       33.5       0.00       0.00
1:40pm             70        3.0       11.0         75       42.8      30.04       35.4     -0.019       12.0       12.0         93       42.8         75       33.5       0.00       0.00
1:45pm             56        4.0       11.0         75       42.8      30.04       35.4     -0.022       12.0       12.0         93       42.8         75       33.5       0.00       0.00
1:50pm             94        6.0       11.0         75       42.8      30.04       35.4     -0.020       12.0       12.0         93       42.8         75       33.5       0.00       0.00
1:55pm             64        7.0       11.0         75       42.9      30.04       35.5     -0.018       12.0       12.0         93       42.9         75       33.5       0.00       0.00
2:00pm             56        7.0       12.0         76       42.8      30.03       35.8     -0.019       12.0       12.0         93       42.9         75       33.5       0.00       0.00
2:05pm             64        6.0        8.0         76       42.6      30.03       35.6     -0.017       12.0       12.0         93       42.9         75       33.5       0.00       0.00
2:10pm             64        4.0       10.0         76       42.6      30.03       35.6     -0.016       12.0       12.0         93       42.9         75       33.5       0.00       0.00
2:15pm             77        4.0       11.0         76       42.5      30.03       35.5     -0.017       12.0       12.0         93       42.9         75       33.5       0.00       0.00
2:20pm             73        7.0       12.0         76       42.5      30.03       35.5     -0.015       12.0       12.0         93       42.9         75       33.5       0.00       0.00
2:25pm             81        4.0       12.0         76       42.3      30.03       35.3     -0.014       12.0       12.0         93       42.9         75       33.5       0.00       0.00
2:30pm             49        6.0       12.0         77       42.5      30.03       35.8     -0.014       12.0       12.0         93       42.9         75       33.5       0.00       0.00
2:35pm             59        7.0       12.0         77       42.3      30.03       35.6     -0.013       12.0       12.0         93       42.9         75       33.5       0.00       0.00
2:40pm             74        8.0       12.0         77       42.5      30.03       35.8     -0.012       12.0       12.0         93       42.9         75       33.5       0.00       0.00
2:45pm             55        3.0       12.0         77       42.5      30.03       35.8     -0.013       12.0       12.0         93       42.9         75       33.5       0.00       0.00
2:50pm             67        7.0       12.0         78       42.3      30.03       35.9     -0.012       12.0       12.0         93       42.9         75       33.5       0.00       0.00
2:55pm             59        3.0       12.0         78       42.2      30.03       35.8     -0.011       12.0       12.0         93       42.9         75       33.5       0.00       0.00
3:00pm             59        3.0       12.0         79       42.3      30.03       36.3     -0.004       12.0       12.0         93       42.9         75       33.5       0.00       0.00
3:05pm             59        1.0        6.0         79       42.5      30.03       36.5     -0.004       12.0       12.0         93       42.9         75       33.5       0.00       0.00
3:10pm             60        3.0        6.0         79       42.6      30.03       36.6     -0.003       12.0       12.0         93       42.9         75       33.5       0.00       0.00
3:15pm             60        2.0        6.0         78       42.6      30.03       36.2     -0.003       12.0       12.0         93       42.9         75       33.5       0.00       0.00
3:20pm             84        5.0        6.0         79       42.9      30.03       36.8     -0.003       12.0       12.0         93       42.9         75       33.5       0.00       0.00
3:25pm             80        2.0        6.0         78       43.1      30.03       36.7     -0.003       12.0       12.0         93       43.1         75       33.5       0.00       0.00
3:30pm             79        3.0        6.0         78       43.2      30.04       36.8     -0.002       12.0       12.0         93       43.2         75       33.5       0.00       0.00
3:35pm             60        5.0        7.0         78       43.3      30.04       36.9     -0.001       12.0       12.0         93       43.3         75       33.5       0.00       0.00
3:40pm             60        1.0        7.0         78       43.3      30.04       36.9     -0.001       12.0       12.0         93       43.3         75       33.5       0.00       0.00
3:45pm             60        6.0        8.0         77       43.3      30.04       36.6     -0.000       12.0       12.0         93       43.3         75       33.5       0.00       0.00
3:50pm             83        6.0       11.0         77       43.3      30.04       36.6     -0.000       12.0       12.0         93       43.3         75       33.5       0.00       0.00
3:55pm             64        3.0       11.0         77       43.3      30.04       36.6     -0.000       12.0       12.0         93       43.3         75       33.5       0.00       0.00
4:00pm             96        2.0       11.0         77       43.3      30.04       36.6      0.003       12.0       12.0         93       43.3         75       33.5       0.00       0.00
4:05pm             84        5.0        7.0         77       43.3      30.04       36.6      0.003       12.0       12.0         93       43.3         75       33.5       0.00       0.00
4:10pm             64        7.0       12.0         76       43.2      30.04       36.2      0.002       12.0       12.0         93       43.3         75       33.5       0.00       0.00
4:15pm             84        5.0       12.0         77       43.1      30.04       36.4      0.006       12.0       12.0         93       43.3         75       33.5       0.00       0.00
4:20pm             90        6.0       12.0         77       42.9      30.04       36.2      0.006       12.0       12.0         93       43.3         75       33.5       0.00       0.00
4:25pm             72        5.0       12.0         77       42.9      30.04       36.2      0.005       12.0       12.0         93       43.3         75       33.5       0.00       0.00
4:30pm             70        3.0       12.0         77       42.8      30.04       36.1      0.004       12.0       12.0         93       43.3         75       33.5       0.00       0.00
4:35pm             60        4.0       12.0         78       42.6      30.04       36.2      0.003       12.0       12.0         93       43.3         75       33.5       0.00       0.00
4:40pm             57        2.0       12.0         78       42.5      30.04       36.1      0.003       12.0       12.0         93       43.3         75       33.5       0.00       0.00
4:45pm             57        3.0       12.0         78       42.3      30.04       35.9      0.001       12.0       12.0         93       43.3         75       33.5       0.00       0.00
4:50pm             57        2.0       12.0         79       42.2      30.04       36.2      0.001       12.0       12.0         93       43.3         75       33.5       0.00       0.00
4:55pm             57        2.0       12.0         79       42.2      30.04       36.2      0.001       12.0       12.0         93       43.3         75       33.5       0.00       0.00
5:00pm             59        3.0       12.0         79       42.2      30.04       36.2      0.001       12.0       12.0         93       43.3         75       33.5       0.00       0.00
5:05pm             59        3.0        5.0         79       42.2      30.04       36.2      0.001       12.0       12.0         93       43.3         75       33.5       0.00       0.00
5:10pm             59        2.0        5.0         79       42.2      30.04       36.2      0.001       12.0       12.0         93       43.3         75       33.5       0.00       0.00
5:15pm             59        4.0        5.0         79       42.2      30.04       36.2      0.002       12.0       12.0         93       43.3         75       33.5       0.00       0.00
5:20pm             59        2.0        6.0         79       42.2      30.04       36.2      0.001       12.0       12.0         93       43.3         75       33.5       0.00       0.00
5:25pm             60        0.0        7.0         79       42.2      30.04       36.2      0.001       12.0       12.0         93       43.3         75       33.5       0.00       0.00
5:30pm             69        4.0        7.0         79       42.3      30.04       36.3      0.001       12.0       12.0         93       43.3         75       33.5       0.00       0.00
5:35pm             86        0.0        7.0         78       42.5      30.04       36.1      0.001       12.0       12.0         93       43.3         75       33.5       0.00       0.00
5:40pm             83        0.0        7.0         78       42.5      30.04       36.1      0.001       12.0       12.0         93       43.3         75       33.5       0.00       0.00
5:45pm             81        4.0        7.0         78       42.5      30.05       36.1      0.006       12.0       12.0         93       43.3         75       33.5       0.00       0.00
5:50pm             80        2.0        7.0         77       42.3      30.05       35.6      0.005       12.0       12.0         93       43.3         75       33.5       0.00       0.00
5:55pm             77        5.0        7.0         77       42.3      30.05       35.6      0.005       12.0       12.0         93       43.3         75       33.5       0.00       0.00
6:00pm             74        3.0        7.0         77       42.2      30.05       35.5      0.011       12.0       12.0         93       43.3         75       33.5       0.00       0.00
6:05pm             74        2.0        6.0         78       42.1      30.05       35.7      0.011       12.0       12.0         93       43.3         75       33.5       0.00       0.00
6:10pm             77        4.0        7.0         78       41.9      30.05       35.6      0.010       12.0       12.0         93       43.3         75       33.5       0.00       0.00
6:15pm             79        2.0        8.0         77       41.9      30.06       35.2      0.011       12.0       12.0         93       43.3         75       33.5       0.00       0.00
6:20pm             96        3.0        8.0         77       41.6      30.06       34.9      0.010       12.0       12.0         93       43.3         75       33.5       0.00       0.00
6:25pm             96        6.0       10.0         78       41.6      30.06       35.3      0.009       12.0       12.0         93       43.3         75       33.5       0.00       0.00
6:30pm             69        4.0       10.0         78       41.5      30.07       35.2      0.019       12.0       12.0         93       43.3         75       33.5       0.00       0.00
6:35pm             69        3.0       10.0         78       41.3      30.07       35.0      0.018       12.0       12.0         93       43.3         75       33.5       0.00       0.00
6:40pm             83        2.0       10.0         77       41.3      30.07       34.6      0.016       12.0       12.0         93       43.3         75       33.5       0.00       0.00
6:45pm             88        5.0       10.0         77       41.2      30.07       34.5      0.018       12.0       12.0         93       43.3         75       33.5       0.00       0.00
6:50pm             73        8.0       12.0         78       41.1      30.07       34.8      0.017       12.0       12.0         93       43.3         75       33.5       0.00       0.00
6:55pm             74        4.0       12.0         78       40.8      30.07       34.5      0.015       12.0       12.0         93       43.3         75       33.5       0.00       0.00
7:00pm             74        2.0       12.0         78       40.6      30.07       34.3      0.014       12.0       12.0         93       43.3         75       33.5       0.00       0.00
7:05pm             70        4.0        7.0         78       40.3      30.07       34.0      0.013       12.0       12.0         93       43.3         75       33.5       0.00       0.00
7:10pm            103        6.0        7.0         79       40.2      30.07       34.2      0.012       12.0       12.0         93       43.3         75       33.5       0.00       0.00
7:15pm             97        6.0       10.0         79       39.9      30.07       33.9      0.012       12.0       12.0         93       43.3         75       33.5       0.00       0.00
7:20pm             83        2.0       10.0         79       39.8      30.07       33.8      0.011       12.0       12.0         93       43.3         75       33.5       0.00       0.00
7:25pm             79        2.0       10.0         79       39.6      30.07       33.6      0.010       12.0       12.0         93       43.3         75       33.5       0.00       0.00
7:30pm             76        0.0       10.0         80       39.5      30.07       33.9      0.006       12.0       12.0         93       43.3         75       33.5       0.00       0.00
7:35pm             77        2.0       10.0         80       39.2      30.07       33.6      0.006       12.0       12.0         93       43.3         75       33.5       0.00       0.00
7:40pm             55        1.0       10.0         80       39.1      30.07       33.5      0.005       12.0       12.0         93       43.3         75       33.5       0.00       0.00
7:45pm            110        2.0       10.0         80       38.9      30.07       33.3      0.008       12.0       12.0         93       43.3         75       33.5       0.00       0.00
7:50pm             83        5.0       10.0         81       38.8      30.07       33.5      0.007       12.0       12.0         93       43.3         75       33.5       0.00       0.00
7:55pm             83        4.0       10.0         81       38.6      30.07       33.3      0.007       12.0       12.0         93       43.3         75       33.5       0.00       0.00
8:00pm             77        1.0       10.0         81       38.6      30.07       33.3      0.004       12.0       12.0         93       43.3         75       33.5       0.00       0.00
8:05pm             77        7.0       10.0         81       38.5      30.07       33.2      0.004       12.0       12.0         93       43.3         75       33.5       0.00       0.00
8:10pm             77        2.0       10.0         81       38.3      30.07       33.0      0.004       12.0       12.0         93       43.3         75       33.5       0.00       0.00
8:15pm             77        2.0       10.0         82       38.2      30.07       33.2      0.004       12.0       12.0         93       43.3         75       33.5       0.00       0.00
8:20pm             77        0.0       10.0         81       38.2      30.07       32.9      0.004       12.0       12.0         93       43.3         75       33.5       0.00       0.00
8:25pm             77        0.0       10.0         82       37.9      30.07       32.9      0.004       12.0       12.0         93       43.3         75       33.5       0.00       0.00
8:30pm             77        2.0       10.0         82       37.6      30.07       32.6     -0.001       12.0       12.0         93       43.3         75       33.5       0.00       0.00
8:35pm             45        2.0       10.0         83       37.6      30.07       32.9     -0.001       12.0       12.0         93       43.3         75       33.5       0.00       0.00
8:40pm             84        4.0       10.0         83       37.5      30.07       32.8     -0.001       12.0       12.0         93       43.3         75       33.5       0.00       0.00
8:45pm             84        0.0       10.0         83       37.3      30.07       32.6      0.000       12.0       12.0         93       43.3         75       33.5       0.00       0.00
8:50pm             84        0.0       10.0         83       37.0      30.07       32.3      0.000       12.0       12.0         93       43.3         75       33.5       0.00       0.00
8:55pm             84        1.0       10.0         83       36.9      30.07       32.2      0.000       12.0       12.0         93       43.3         75       33.5       0.00       0.00
9:00pm             84        1.0       10.0         83       36.9      30.07       32.2      0.001       12.0       12.0         93       43.3         75       33.5       0.00       0.00
9:05pm             84        0.0        3.0         83       36.8      30.07       32.1      0.001       12.0       12.0         93       43.3         75       33.5       0.00       0.00
9:10pm             84        1.0        5.0         84       36.8      30.07       32.4      0.001       12.0       12.0         93       43.3         75       33.5       0.00       0.00
9:15pm             84        0.0        5.0         84       36.8      30.07       32.4     -0.001       12.0       12.0         93       43.3         75       33.5       0.00       0.00
9:20pm             84        0.0        5.0         83       36.6      30.07       31.9     -0.001       12.0       12.0         93       43.3         75       33.5       0.00       0.00
9:25pm             84        2.0        5.0         84       36.6      30.07       32.2     -0.001       12.0       12.0         93       43.3         75       33.5       0.00       0.00
9:30pm             84        2.0        5.0         84       36.5      30.06       32.1     -0.007       12.0       12.0         93       43.3         75       33.5       0.00       0.00
9:35pm             84        1.0        6.0         84       36.5      30.06       32.1     -0.006       12.0       12.0         93       43.3         75       33.5       0.00       0.00
9:40pm             84        0.0        7.0         84       36.5      30.06       32.1     -0.006       12.0       12.0         93       43.3         75       33.5       0.00       0.00
9:45pm             81        2.0        7.0         84       36.5      30.06       32.1     -0.007       12.0       12.0         93       43.3         75       33.5       0.00       0.00
9:50pm            100        1.0        8.0         84       36.6      30.06       32.2     -0.007       12.0       12.0         93       43.3         75       33.5       0.00       0.00
9:55pm            100        3.0        8.0         83       36.6      30.06       31.9     -0.006       12.0       12.0         93       43.3         75       33.5       0.00       0.00
10:00pm            88        5.0        8.0         83       36.9      30.06       32.2     -0.005       12.0       12.0         93       43.3         75       33.5       0.00       0.00
10:05pm            88        5.0        5.0         83       36.9      30.06       32.2     -0.004       12.0       12.0         93       43.3         75       33.5       0.00       0.00
10:10pm            83        1.0        6.0         83       37.0      30.06       32.3     -0.004       12.0       12.0         93       43.3         75       33.5       0.00       0.00
10:15pm           121        2.0        7.0         83       37.0      30.06       32.3     -0.005       12.0       12.0         93       43.3         75       33.5       0.00       0.00
10:20pm           100        3.0        7.0         83       37.0      30.06       32.3     -0.004       12.0       12.0         93       43.3         75       33.5       0.00       0.00
10:25pm            87        2.0        7.0         83       37.0      30.06       32.3     -0.004       12.0       12.0         93       43.3         75       33.5       0.00       0.00
10:30pm            83        3.0        7.0         83       37.0      30.06       32.3     -0.006       12.0       12.0         93       43.3         75       33.5       0.00       0.00
10:35pm            81        2.0        7.0         83       37.2      30.06       32.5     -0.006       12.0       12.0         93       43.3         75       33.5       0.00       0.00
10:40pm            83        2.0        7.0         82       37.2      30.06       32.2     -0.005       12.0       12.0         93       43.3         75       33.5       0.00       0.00
10:45pm            69        3.0        8.0         83       37.2      30.06       32.5     -0.004       12.0       12.0         93       43.3         75       33.5       0.00       0.00
10:50pm            70        1.0        8.0         83       37.2      30.06       32.5     -0.004       12.0       12.0         93       43.3         75       33.5       0.00       0.00
10:55pm            70        2.0        8.0         82       37.2      30.06       32.2     -0.003       12.0       12.0         93       43.3         75       33.5       0.00       0.00
11:00pm           124        2.0        8.0         82       37.2      30.06       32.2     -0.000       12.0       12.0         93       43.3         75       33.5       0.00       0.00
11:05pm            98        3.0        5.0         82       37.2      30.06       32.2     -0.000       12.0       12.0         93       43.3         75       33.5       0.00       0.00
11:10pm            91        5.0        8.0         82       37.2      30.06       32.2     -0.000       12.0       12.0         93       43.3         75       33.5       0.00       0.00
11:15pm            83        0.0        9.0         82       37.3      30.05       32.3     -0.007       12.0       12.0         93       43.3         75       33.5       0.00       0.00
11:20pm            83        3.0        9.0         82       37.3      30.05       32.3     -0.006       12.0       12.0         93       43.3         75       33.5       0.00       0.00
11:25pm            84        4.0        9.0         82       37.3      30.05       32.3     -0.006       12.0       12.0         93       43.3         75       33.5       0.00       0.00
11:30pm            83        4.0        9.0         82       37.2      30.05       32.2     -0.007       12.0       12.0         93       43.3         75       33.5       0.00       0.00
11:35pm            81        2.0        9.0         82       37.2      30.05       32.2     -0.007       12.0       12.0         93       43.3         75       33.5       0.00       0.00
11:40pm            90        3.0       12.0         82       37.2      30.05       32.2     -0.006       12.0       12.0         93       43.3         75       33.5       0.00       0.00
11:45pm            90        1.0       12.0         82       37.0      30.04       32.0     -0.017       12.0       12.0         93       43.3         75       33.5       0.00       0.00
11:50pm            90        2.0       12.0         82       37.0      30.04       32.0     -0.015       12.0       12.0         93       43.3         75       33.5       0.00       0.00
11:55pm            91        3.0       12.0         82       36.9      30.04       31.9     -0.014       12.0       12.0         93       43.3         75       33.5       0.00       0.00


Updated Automatically by Ambient Software's Virtual Weather Station  V14.01
All rights reserved. Unauthorized duplication or distribution is prohibited
Never base important decisions on this or any weather information obtained from the Internet